Weather Service Report


655 
ASUS45 KBOI 301010
RWRID 

IDAHO REGIONAL WEATHER ROUNDUP
NATIONAL WEATHER SERVICE BOISE ID
400 AM MDT SAT MAY 30 2015

NOTE: "FAIR" INDICATES FEW OR NO CLOUDS BELOW 12000 FEET
WITH NO SIGNIFICANT WEATHER AND/OR OBSTRUCTIONS TO VISIBILITY

IDZ012-014-301100-
SOUTHWEST IDAHO

  
CITY           SKY/WX    TMP DP  RH WIND       PRES   REMARKS
BOISE          CLOUDY    70  44  39 E5        29.93S                  
CALDWELL       CLOUDY    64  45  48 CALM      29.93S                  
MOUNTAIN HOME  CLOUDY    67  45  44 E17       29.93F                  
$$

IDZ016-017-301100-
SOUTHCENTRAL IDAHO

  
CITY           SKY/WX    TMP DP  RH WIND       PRES   REMARKS
BURLEY         PTCLDY    56  45  66 E7        30.04F                  
JEROME         PTCLDY    57  44  62 NE14      30.04F                  
TWIN FALLS     PTCLDY    63  42  46 S13       30.00F                  
$$

IDZ019>023-301100-
SOUTHEAST IDAHO

  
CITY           SKY/WX    TMP DP  RH WIND       PRES   REMARKS
IDAHO FALLS    PTCLDY    47  44  90 CALM      30.13F                  
POCATELLO      CLEAR     53  48  83 VRB3      30.10F                  
REXBURG        PTCLDY    47  43  86 NE3       30.14F                  
$$

IDZ006-010-011-018-031-032-301100-
CENTRAL IDAHO MOUNTAINS

  
CITY           SKY/WX    TMP DP  RH WIND       PRES   REMARKS
MCCALL         LGT RAIN  52  47  83 N10       30.09F                  
HAILEY         PTCLDY    50  41  71 NW8       30.16F                  
STANLEY          N/A     42  34  73 N5        30.18F                  
SALMON           N/A     50  45  81 SE5       30.07F                  
CHALLIS        CLEAR     49  41  74 CALM      30.12F                  
$$

IDZ002-004-006-007-026-301100-
NORTHERN IDAHO

  
CITY           SKY/WX    TMP DP  RH WIND       PRES   REMARKS
LEWISTON       CLOUDY    69  53  56 CALM      29.88F                  
LOWELL           N/A     58  53  84 CALM      29.98R                  
COEUR D'ALENE  CLOUDY    61  50  67 E9        29.96F                  
MULLAN PASS    CLOUDY    52  43  71 SW5       30.09R                  
$$

Return to Home page


Western Regional Climate Center, wrcc@dri.edu